This demonstration page uses our WeatherBlox Daily Observations layout. Learn more.

Left ArrowRight Arrow

Hourly Observations for March 15, 2016

Temp ( °F °C ) Dew Point ( °F °C ) Humidity (%) Winds ( mph kmh ) Pressure ( in mb ) Visibility ( mi km ) Precip ( " mm )
12:53 am 00:53 Mostly Clear 45 7.2 37 2.8 74 74 Calm 30.25 1024 10 16 0.00 0.00
1:53 am 01:53 Clear 44 6.7 37 2.8 76 76 NW 5 7 30.26 1025 10 16 0.00 0.00
2:53 am 02:53 Clear 42 5.6 36 2.2 79 79 NNE 6 9 30.26 1025 10 16 0.00 0.00
3:53 am 03:53 Clear 42 5.6 37 2.8 82 82 N 5 7 30.25 1024 10 16 0.00 0.00
4:53 am 04:53 Clear 43 6.1 38 3.3 82 82 Calm 30.24 1024 10 16 0.00 0.00
5:53 am 05:53 Cloudy 44 6.7 38 3.3 79 79 Calm 30.24 1024 10 16 0.00 0.00
6:53 am 06:53 Cloudy 44 6.7 37 2.8 76 76 N 3 6 30.26 1025 10 16 0.00 0.00
7:53 am 07:53 Cloudy 45 7.2 37 2.8 74 74 N 3 6 30.26 1025 10 16 0.00 0.00
8:53 am 08:53 Mostly Cloudy 47 8.3 37 2.8 69 69 Calm 30.27 1025 10 16 0.00 0.00
9:53 am 09:53 Sunny 53 11.7 38 3.3 57 57 NNW 3 6 30.27 1025 10 16 0.00 0.00
10:53 am 10:53 Sunny 57 13.9 38 3.3 49 49 N 3 6 30.26 1025 10 16 0.00 0.00
11:53 am 11:53 Sunny 60 15.6 38 3.3 44 44 ENE 6 9 30.25 1024 10 16 0.00 0.00
12:53 pm 12:53 Sunny 61 16.1 37 2.8 41 41 VRB 5 7 30.22 1024 10 16 0.00 0.00
1:53 pm 13:53 Sunny 64 17.8 32 0 30 30 Calm 30.21 1023 10 16 0.00 0.00
2:53 pm 14:53 Sunny 67 19.4 31 -0.6 26 26 NE 3 6 30.19 1022 10 16 0.00 0.00
3:53 pm 15:53 Sunny 68 20 27 -2.8 21 21 Calm 30.17 1022 10 16 0.00 0.00
4:53 pm 16:53 Sunny 67 19.4 36 2.2 32 32 SE 6 9 30.16 1021 10 16 0.00 0.00
5:53 pm 17:53 Sunny 66 18.9 31 -0.6 27 27 SE 5 7 30.16 1021 10 16 0.00 0.00
6:53 pm 18:53 Sunny 64 17.8 37 2.8 37 37 Calm 30.16 1021 10 16 0.00 0.00
7:53 pm 19:53 Clear 56 13.3 38 3.3 51 51 Calm 30.16 1021 10 16 0.00 0.00
8:53 pm 20:53 Clear 54 12.2 40 4.4 59 59 WNW 5 7 30.16 1022 10 16 0.00 0.00
9:53 pm 21:53 Clear 53 11.7 39 3.9 59 59 N 6 9 30.18 1022 10 16 0.00 0.00
10:53 pm 22:53 Clear 53 11.7 38 3.3 57 57 N 6 9 30.18 1022 10 16 0.00 0.00
11:53 pm 23:53 Clear 51 10.6 39 3.9 64 64 NNW 6 9 30.18 1022 10 16 0.00 0.00

Powered by AerisWeather